Regional Weather Roundup
Issued by NWS

Home | Current Version | Previous Version | Text Only | Print | Product List | Glossary On
Versions: 1 2 3 4 5 6 7 8 9 10 11 12 13 14 15 16 17 18 19 20 21 22 23 24 25 26 27 28 29 30 31 32 33 34 35 36 37 38 39 40 41 42 43 44 45 46 47 48 49 50
000
ASUS45 KABQ 020810
RWRNM
NEW MEXICO REGIONAL WEATHER ROUNDUP
NATIONAL WEATHER SERVICE ALBUQUERQUE NM
200 AM MDT SUN AUG 02 2015

NOTE: "FAIR" MEANS FEW OR NO CLOUDS BELOW 12,000 FEET AGL WITH NO
       SIGNIFICANT WEATHER OR OBSTRUCTIONS TO VISION.

      THIS PRODUCT IS RELEASED AS TWO VERSIONS.  ONE VERSION NEAR
      THE TOP OF THE HOUR CONTAINING PRELIMINARY DATA FROM ALBUQUERQUE
      AND OTHER STATIONS.  A FINAL VERSION WITH ADDITIONAL DATA IS
      ISSUED ABOUT 10 MINUTES AFTER THE HOUR.

NMZ501-503-504-510>518-020900-
NORTHWEST PLATEAU/NORTHCENTRAL MOUNTAINS

CITY           SKY/WX    TMP DP  RH WIND       PRES   REMARKS
FARMINGTON     CLEAR     65  57  75 NE5       30.15F
LOS ALAMOS     MOCLDY    61  57  89 CALM      30.30F
SANTA FE       CLOUDY    64  58  80 CALM      30.24F
TAOS           MOCLDY    55  45  67 E6        30.31F
ANGEL FIRE     FAIR      49  48  97 CALM      30.40F

$$
NMZ402-403-502-505>509-020900-
WESTCENTRAL MOUNTAINS/SOUTHWEST MOUNTAINS

CITY           SKY/WX    TMP DP  RH WIND       PRES   REMARKS
GALLUP         MOCLDY    60  55  83 E3        30.23F
GRANTS         CLOUDY    59  58  96 S5        30.26F
SILVER CITY      N/A     66  57  72 NW3       30.18S

$$
NMZ407-409-411-412-020900-
SOUTHERN DESERTS

CITY           SKY/WX    TMP DP  RH WIND       PRES   REMARKS
LORDSBURG      FAIR      72  63  73 E3        30.08S
DEMING         PTCLDY    70  62  76 NE9       30.08S
LAS CRUCES     CLEAR     73  58  59 NE5       30.11R
HOLLOMAN AFB   MOCLDY    76  54  45 NW13      30.06R
ALAMOGORDO     MOCLDY    82  48  30 NE6       30.06F
T OR C         CLOUDY    73  59  61 NE9       30.15S

$$
NMZ519>523-020900-
CENTRAL VALLEYS/CENTRAL HIGHLANDS

CITY           SKY/WX    TMP DP  RH WIND       PRES   REMARKS
ALBUQUERQUE    CLOUDY    67  61  81 SE7       30.18F
DOUBLE EAGLE   CLOUDY    62  60  93 SE5       30.21F
MORIARTY ARPT    N/A     61  57  87 N3        30.25F
CLINES CORNERS CLOUDY    61  56  83 NW6       30.28F
BELEN          FAIR      65  61  84 CALM      30.18F
SOCORRO        CLOUDY    68  59  72 CALM      30.19S

$$
NMZ524>526-539-540-020900-
SOUTHCENTRAL MOUNTAINS

CITY           SKY/WX    TMP DP  RH WIND       PRES   REMARKS
RUIDOSO          N/A    N/A N/A N/A MISG        N/A

$$
NMZ527>531-020900-
NORTHEAST HIGHLANDS/NORTHEAST PLAINS

CITY           SKY/WX    TMP DP  RH WIND       PRES   REMARKS
LAS VEGAS      MOCLDY    59  56  89 NE7       30.27
RATON          CLOUDY    62  58  86 NE5       30.21F
CLAYTON        CLOUDY    69  63  81 CALM      30.10F

$$
NMZ532>537-020900-
EASTCENTRAL PLAINS

CITY           SKY/WX    TMP DP  RH WIND       PRES   REMARKS
TUCUMCARI      CLOUDY    69  64  84 SW8       30.07F
CANNON AFB     PTCLDY    67  62  82 SW2       30.11F
CLOVIS AIRPORT PTCLDY    66  61  82 S3        30.11F

$$
NMZ028-029-538-020900-
SOUTHEAST PLAINS

CITY           SKY/WX    TMP DP  RH WIND       PRES   REMARKS
ROSWELL        CLOUDY    76  61  59 S10       30.07F
ARTESIA        MOCLDY    75  63  64 S5        30.08S
CARLSBAD       MOCLDY    77  63  61 SE3       30.04F
HOBBS            N/A    N/A N/A N/A MISG        N/A


$$


USA.gov is the U.S. government's official web portal to all federal, state and local government web resources and services.